Flag for United Kingdom Weather past 2 weeks in Wolverhampton, England, United Kingdom

Now
48 °F

Clear.


Feels Like: 46 °F
Forecast: 53 / 65 °F
Wind: 5 mph from Southeast

Location: Birmingham / Airport

Current Time: Aug 28, 2015 at 6:44:08 AM

Latest Report: Aug 28, 2015 at 6:20 AM


Visibility: 10 mi

Pressure: 29.89 "Hg

Humidity: 94%

Dew point: 46 °F

Location of WolverhamptonLocation

Historic Weather in Wolverhampton — Graph

°F

Wolverhampton temperature yesterday

Maximum temperature yesterday: 64 °F (at 12:20 PM)
Minimum temperature yesterday: 52 °F (at 11:50 PM)
Average temperature yesterday: 58 °F

Past Weeks' High & Low Weather Summary

 TemperatureHumidityPressure
High82 °F (Aug 22, 3:50 PM)100% (Aug 14, 12:50 AM)30.12 "Hg (Aug 14, 12:50 AM)
Low43 °F (Aug 16, 5:50 AM)43% (Aug 15, 5:50 PM)29.50 "Hg (Aug 23, 11:50 AM)
Average61 °F79%29.84 "Hg
* Reported Aug 13 5:20 AM — Aug 28 5:20 AM, Wolverhampton, Weather by CustomWeather, © 2015

Note: Actual official high and low records may vary slightly from our data, if they occured in-between our weather recording intervals... More about our weather records

Advertising

Wolverhampton weather history for previous 24 hours

 ConditionsComfort  
Time TempWeatherWind HumidityBarometerVisibility
5:20 AM
Fri, Aug 28
50 °FClear.5 mph100%29.86 "Hg10 mi
4:50 AM50 °FPassing clouds.6 mph100%29.86 "HgN/A
4:20 AM50 °FClear.3 mph94%29.86 "Hg10 mi
3:50 AM48 °FClear.2 mph94%29.86 "Hg10 mi
3:20 AM48 °FClear.2 mph94%29.86 "Hg10 mi
2:50 AM50 °FClear.2 mph94%29.86 "Hg10 mi
2:20 AM50 °FClear.3 mph94%29.86 "Hg10 mi
1:50 AM48 °FClear.6 mph94%29.86 "Hg10 mi
1:20 AM50 °FClear.3 mph94%29.83 "Hg10 mi
12:50 AM50 °FClear.3 mph94%29.83 "Hg10 mi
12:20 AM50 °FClear.3 mph94%29.83 "Hg10 mi
11:50 PM
Thu, Aug 27
52 °FPassing clouds.5 mph88%29.83 "HgN/A
11:20 PM54 °FClear.3 mph82%29.80 "Hg10 mi
10:50 PM55 °FClear.3 mph77%29.80 "Hg10 mi
10:20 PM54 °FClear.2 mph82%29.80 "Hg10 mi
9:50 PM54 °FClear.5 mph82%29.80 "Hg10 mi
9:20 PM57 °FClear.3 mph72%29.77 "Hg10 mi
8:50 PM59 °FPassing clouds.5 mph72%29.77 "HgN/A
8:20 PM59 °FPassing clouds.5 mph72%29.74 "HgN/A
7:50 PM61 °FPassing clouds.6 mph68%29.74 "HgN/A
7:20 PM61 °FScattered clouds.6 mph68%29.71 "HgN/A
6:50 PM63 °FPassing clouds.6 mph68%29.71 "HgN/A
6:20 PM63 °FScattered clouds.8 mph68%29.71 "HgN/A
5:50 PM63 °FScattered showers. Scattered clouds.8 mph64%29.71 "HgN/A
5:20 PM63 °FScattered showers. Scattered clouds.8 mph64%29.71 "HgN/A
4:50 PM63 °FScattered showers. Scattered clouds.10 mph68%29.71 "HgN/A
4:20 PM63 °FScattered showers. Scattered clouds.8 mph64%29.71 "HgN/A
3:50 PM61 °FScattered showers. Scattered clouds.7 mph72%29.71 "HgN/A
3:20 PM64 °FRain showers. Scattered clouds.12 mph56%29.68 "HgN/A
2:50 PM64 °FMild.9 mph60%29.68 "HgN/A
2:20 PM61 °FScattered showers. Scattered clouds.10 mph72%29.68 "HgN/A
1:50 PM57 °FScattered showers. Scattered clouds.9 mph82%29.68 "HgN/A
1:20 PM61 °FMixture of precip. Scattered clouds.14 mph63%29.68 "HgN/A
12:50 PM64 °FScattered clouds.9 mph56%29.65 "HgN/A
12:20 PM64 °FPartly sunny.10 mph56%29.65 "HgN/A
11:50 AM63 °FScattered clouds.9 mph59%29.65 "HgN/A
11:20 AM63 °FBroken clouds.10 mph59%29.65 "HgN/A
10:20 AM61 °FScattered clouds.9 mph72%29.65 "HgN/A
9:50 AM59 °FScattered clouds.7 mph77%29.65 "HgN/A
9:20 AM59 °FScattered clouds.8 mph77%29.65 "HgN/A
8:50 AM57 °FScattered clouds.8 mph88%29.65 "HgN/A
8:20 AM57 °FPartly sunny.8 mph88%29.62 "HgN/A
7:50 AM55 °FPartly sunny.6 mph94%29.62 "HgN/A
7:20 AM55 °FScattered clouds.6 mph94%29.62 "HgN/A
6:50 AM55 °FPassing clouds.6 mph94%29.62 "HgN/A
6:20 AM55 °FLight rain. Passing clouds.6 mph94%29.62 "HgN/A
Weather by CustomWeather, © 2015

See weather overviewHow to use our weather pages